Hollywood, FL

2:15 AM EDT on March 26, 2017 (GMT -0400)
North Perry

Weather History for KHWO - April, 2013

Change the Weather History Date:

Tuesday, April 2, 2013

  Actual Average (KFLL) Record (KFLL)
Temperature  
Mean Temperature 74 °F -  
Max Temperature 84 °F 80 °F 92 °F (1954)
Min Temperature 64 °F 64 °F 45 °F (1925)
Cooling Degree Days 9    
Growing Degree Days 24 (Base 50)    
Moisture  
Dew Point 64 °F    
Average Humidity 76    
Maximum Humidity 100    
Minimum Humidity 44    
Precipitation  
Precipitation 0.00 in - - ()
Sea Level Pressure  
Sea Level Pressure 30.07 in    
Wind  
Wind Speed 4 mph (North)    
Max Wind Speed 12 mph    
Max Gust Speed -    
Visibility 9 miles    
Events Fog    
Averages and records for this station are not official NWS values.
T = Trace of Precipitation, MM = Missing Value Source: NWS Daily Summary

Daily Weather History Graph

Daily Weather History Graph

Search for Another Location

Airport or City:

Trip Planner

Search our weather history database for the weather conditions in past years. The results will help you decide how hot, cold, wet, or windy it might be!

Date:

Astronomy

Apr. 02, 2013 Rise Set
Actual Time 7:10 AM EDT 7:38 PM EDT
Civil Twilight 6:47 AM EDT 8:01 PM EDT
Nautical Twilight 6:20 AM EDT 8:28 PM EDT
Astronomical Twilight 5:53 AM EDT 8:56 PM EDT
Moon 1:18 AM EDT (4/2) 12:22 PM EDT (4/2)
Length of Visible Light 13h 13m
Length of Day
12h 27m
Waning Gibbous, 56% of the Moon is Illuminated
Apr 2
Waning Gibbous
Apr 3
Last Quarter
Apr 10
New
Apr 18
First Quarter
Apr 25
Full

Hourly Weather History & Observations

Time (EDT) Temp. Heat Index Dew Point Humidity Pressure Visibility Wind Dir Wind Speed Gust Speed Precip Events Conditions
12:53 AM 69.1 °F - 63.0 °F 81% 30.06 in 10.0 mi WNW 4.6 mph - N/A   Clear
1:53 AM 68.0 °F - 64.0 °F 87% 30.06 in 10.0 mi West 3.5 mph - N/A   Clear
2:53 AM 66.9 °F - 64.0 °F 90% 30.04 in 10.0 mi SSW 3.5 mph - N/A   Clear
3:53 AM 66.9 °F - 64.0 °F 90% 30.02 in 10.0 mi West 3.5 mph - N/A   Clear
4:53 AM 66.0 °F - 64.0 °F 93% 30.03 in 10.0 mi Calm Calm - N/A   Clear
5:53 AM 64.9 °F - 64.0 °F 97% 30.04 in 10.0 mi NNW 3.5 mph - N/A   Clear
6:53 AM 64.9 °F - 64.0 °F 97% 30.05 in 10.0 mi Calm Calm - N/A   Clear
7:06 AM 64.4 °F - 64.4 °F 100% 30.05 in 10.0 mi Calm Calm - N/A   Scattered Clouds
7:10 AM 64.4 °F - 64.4 °F 100% 30.05 in 1.0 mi NNW 4.6 mph - N/A   Mostly Cloudy
7:53 AM 66.9 °F - 66.0 °F 97% 30.08 in 0.5 mi NW 6.9 mph - N/A Fog Fog
8:21 AM 66.2 °F - 66.2 °F 100% 30.09 in 1.0 mi NW 9.2 mph - N/A   Overcast
8:53 AM 66.9 °F - 66.9 °F 100% 30.10 in 3.0 mi NW 4.6 mph - N/A   Mostly Cloudy
9:03 AM 68.0 °F - 66.2 °F 94% 30.11 in 10.0 mi NW 3.5 mph - N/A   Scattered Clouds
9:53 AM 72.0 °F - 66.0 °F 81% 30.11 in 10.0 mi NNW 4.6 mph - N/A   Clear
10:53 AM 77.0 °F - 64.0 °F 64% 30.11 in 10.0 mi NW 6.9 mph - N/A   Clear
11:53 AM 79.0 °F - 60.1 °F 52% 30.12 in 10.0 mi Calm Calm - N/A   Clear
12:53 PM 81.0 °F 81.7 °F 61.0 °F 50% 30.10 in 10.0 mi Variable 3.5 mph - N/A   Clear
1:53 PM 82.9 °F 82.8 °F 59.0 °F 44% 30.07 in 10.0 mi Calm Calm - N/A   Clear
2:53 PM 82.9 °F 84.0 °F 63.0 °F 51% 30.06 in 10.0 mi North 5.8 mph - N/A   Clear
3:53 PM 84.0 °F 84.5 °F 62.1 °F 47% 30.04 in 10.0 mi East 9.2 mph - N/A   Clear
4:53 PM 82.0 °F 83.0 °F 62.1 °F 51% 30.04 in 10.0 mi East 9.2 mph - N/A   Clear
5:53 PM 81.0 °F 81.9 °F 62.1 °F 52% 30.04 in 10.0 mi ENE 11.5 mph - N/A   Clear
6:53 PM 78.1 °F - 63.0 °F 60% 30.04 in 10.0 mi ENE 10.4 mph - N/A   Clear
7:53 PM 75.0 °F - 63.0 °F 66% 30.06 in 10.0 mi East 11.5 mph - N/A   Clear
8:53 PM 73.9 °F - 64.0 °F 71% 30.07 in 10.0 mi ENE 6.9 mph - N/A   Clear
9:53 PM 73.9 °F - 64.0 °F 71% 30.09 in 10.0 mi East 5.8 mph - N/A   Clear
10:53 PM 73.0 °F - 64.0 °F 73% 30.10 in 10.0 mi East 3.5 mph - N/A   Clear
11:53 PM 72.0 °F - 64.9 °F 78% 30.09 in 10.0 mi East 5.8 mph - N/A   Clear